EN

Hourly Weather Otnozhenskiy

Today, 25 February, Thursday

Time Temperature Precipitation Wind Pressure Humidity
00:00 -15°C° 0 mm 2 mps 772 mmHg 74%
01:00 -15°C° 0 mm 2 mps 771 mmHg 74%
02:00 -15°C° 0 mm 2 mps 771 mmHg 73%
03:00 -16°C° 0 mm 3 mps 771 mmHg 71%
04:00 -16°C° 0 mm 3 mps 770 mmHg 72%
05:00 -15°C° 0 mm 2 mps 770 mmHg 72%
06:00 -15°C° 0 mm 2 mps 770 mmHg 73%
07:00 -16°C° 0 mm 3 mps 770 mmHg 72%
08:00 -15°C° 0 mm 3 mps 769 mmHg 72%
09:00 -16°C° 0 mm 4 mps 769 mmHg 71%
10:00 -15°C° 0 mm 4 mps 769 mmHg 68%
11:00 -12°C° 0 mm 4 mps 768 mmHg 65%
12:00 -11°C° 0 mm 4 mps 768 mmHg 61%
13:00 -10°C° 0 mm 4 mps 767 mmHg 62%
14:00 -9°C° 0 mm 4 mps 767 mmHg 62%
15:00 -9°C° 0 mm 4 mps 766 mmHg 63%
16:00 -9°C° 0 mm 4 mps 765 mmHg 66%
17:00 -9°C° 0 mm 4 mps 765 mmHg 69%
18:00 -9°C° 0 mm 4 mps 764 mmHg 72%
19:00 -9°C° 0 mm 4 mps 764 mmHg 72%
20:00 -8°C° 0 mm 5 mps 763 mmHg 72%
21:00 -9°C° 0 mm 6 mps 763 mmHg 72%
22:00 -8°C° 0.1 mm 6 mps 762 mmHg 77%
23:00 -8°C° 0.1 mm 7 mps 762 mmHg 82%

Tomorrow, 26 February, Friday

Time Temperature Precipitation Wind Pressure Humidity
00:00 -7°C° 0.1 mm 7 mps 761 mmHg 87%
01:00 -6°C° 0.3 mm 7 mps 761 mmHg 89%
02:00 -4°C° 0.3 mm 7 mps 760 mmHg 91%
03:00 -3°C° 0.3 mm 7 mps 760 mmHg 93%
04:00 -3°C° 0.2 mm 7 mps 760 mmHg 94%
05:00 -3°C° 0.2 mm 7 mps 759 mmHg 94%
06:00 -2°C° 0.2 mm 7 mps 759 mmHg 95%
07:00 -2°C° 0.2 mm 6 mps 759 mmHg 95%
08:00 -2°C° 0.2 mm 6 mps 759 mmHg 96%
09:00 -1°C° 0.2 mm 6 mps 759 mmHg 97%
10:00 -1°C° 0 mm 6 mps 759 mmHg 97%
11:00 -1°C° 0 mm 6 mps 759 mmHg 98%
12:00 +1°C° 0 mm 5 mps 758 mmHg 99%
13:00 +1°C° 0 mm 5 mps 758 mmHg 98%
14:00 +2°C° 0 mm 5 mps 758 mmHg 98%
15:00 +2°C° 0 mm 5 mps 758 mmHg 98%
16:00 +2°C° 0 mm 5 mps 758 mmHg 97%
17:00 +1°C° 0 mm 5 mps 757 mmHg 97%
18:00 +1°C° 0 mm 5 mps 757 mmHg 97%
19:00 +1°C° 0 mm 5 mps 757 mmHg 97%
20:00 +1°C° 0 mm 6 mps 757 mmHg 97%
21:00 +1°C° 0 mm 6 mps 757 mmHg 96%
22:00 +1°C° 0 mm 6 mps 756 mmHg 96%
23:00 0°C° 0 mm 7 mps 756 mmHg 96%

Day after tomorrow, 27 February, Saturday

Time Temperature Precipitation Wind Pressure Humidity
00:00 0°C° 0 mm 7 mps 755 mmHg 96%
01:00 0°C° 0 mm 7 mps 755 mmHg 96%
02:00 +1°C° 0 mm 6 mps 755 mmHg 95%
03:00 +1°C° 0 mm 6 mps 754 mmHg 95%
04:00 +1°C° 0 mm 6 mps 754 mmHg 95%
05:00 +1°C° 0 mm 5 mps 754 mmHg 95%
06:00 +1°C° 0 mm 5 mps 753 mmHg 95%
07:00 +1°C° 0 mm 5 mps 753 mmHg 95%
08:00 +1°C° 0 mm 5 mps 753 mmHg 95%
09:00 +1°C° 0 mm 5 mps 753 mmHg 96%
10:00 +1°C° 0.2 mm 5 mps 752 mmHg 96%
11:00 +1°C° 0.2 mm 4 mps 752 mmHg 97%
12:00 +1°C° 0.2 mm 4 mps 752 mmHg 97%
13:00 +1°C° 0.2 mm 4 mps 751 mmHg 97%
14:00 +1°C° 0.2 mm 4 mps 751 mmHg 97%
15:00 +1°C° 0.2 mm 4 mps 751 mmHg 97%
16:00 +1°C° 0.2 mm 4 mps 751 mmHg 97%
17:00 0°C° 0.2 mm 4 mps 750 mmHg 96%
18:00 +1°C° 0.2 mm 3 mps 750 mmHg 96%
19:00 +1°C° 0 mm 3 mps 751 mmHg 95%
20:00 0°C° 0 mm 4 mps 751 mmHg 95%
21:00 0°C° 0 mm 4 mps 751 mmHg 94%
22:00 0°C° 0 mm 3 mps 751 mmHg 94%
23:00 0°C° 0 mm 3 mps 751 mmHg 94%

28 February, Sunday

Time Temperature Precipitation Wind Pressure Humidity
00:00 0°C° 0 mm 3 mps 751 mmHg 94%
01:00 -1°C° 0 mm 3 mps 751 mmHg 94%
02:00 -1°C° 0 mm 3 mps 751 mmHg 94%
03:00 -1°C° 0 mm 3 mps 751 mmHg 94%
04:00 -1°C° 0 mm 3 mps 751 mmHg 93%
05:00 -1°C° 0 mm 3 mps 751 mmHg 93%
06:00 -1°C° 0 mm 3 mps 751 mmHg 93%
07:00 -1°C° 0 mm 3 mps 752 mmHg 92%
08:00 -1°C° 0 mm 4 mps 752 mmHg 92%
09:00 -1°C° 0 mm 4 mps 752 mmHg 92%
10:00 0°C° 0 mm 4 mps 753 mmHg 88%
11:00 0°C° 0 mm 4 mps 753 mmHg 85%
12:00 0°C° 0 mm 4 mps 753 mmHg 81%
13:00 0°C° 0 mm 4 mps 753 mmHg 79%
14:00 0°C° 0 mm 4 mps 754 mmHg 77%
15:00 0°C° 0 mm 4 mps 754 mmHg 75%
16:00 -1°C° 0 mm 4 mps 754 mmHg 76%
17:00 -2°C° 0 mm 4 mps 755 mmHg 76%
18:00 -2°C° 0 mm 3 mps 755 mmHg 77%
19:00 -2°C° 0 mm 3 mps 756 mmHg 78%
20:00 -4°C° 0 mm 3 mps 756 mmHg 79%
21:00 -3°C° 0 mm 2 mps 757 mmHg 80%
22:00 -4°C° 0 mm 2 mps 757 mmHg 79%
23:00 -4°C° 0 mm 2 mps 758 mmHg 78%

1 March, Monday

Time Temperature Precipitation Wind Pressure Humidity
00:00 -4°C° 0 mm 2 mps 758 mmHg 77%
01:00 -5°C° 0 mm 3 mps 759 mmHg 76%
02:00 -5°C° 0 mm 3 mps 759 mmHg 75%
03:00 -5°C° 0 mm 3 mps 759 mmHg 73%
04:00 -6°C° 0 mm 3 mps 760 mmHg 73%
05:00 -6°C° 0 mm 3 mps 760 mmHg 72%
06:00 -6°C° 0 mm 3 mps 760 mmHg 71%
07:00 -6°C° 0 mm 3 mps 761 mmHg 69%
08:00 -6°C° 0 mm 3 mps 761 mmHg 68%
09:00 -6°C° 0 mm 3 mps 762 mmHg 66%
10:00 -5°C° 0 mm 3 mps 762 mmHg 63%
11:00 -4°C° 0 mm 4 mps 763 mmHg 60%
12:00 -3°C° 0 mm 4 mps 763 mmHg 57%
13:00 -3°C° 0 mm 4 mps 763 mmHg 56%
14:00 -3°C° 0 mm 4 mps 763 mmHg 55%
15:00 -1°C° 0 mm 3 mps 763 mmHg 54%
16:00 -2°C° 0 mm 3 mps 763 mmHg 58%
17:00 -2°C° 0 mm 2 mps 763 mmHg 61%
18:00 -3°C° 0 mm 2 mps 763 mmHg 65%
19:00 -3°C° 0 mm 2 mps 763 mmHg 66%
20:00 -3°C° 0 mm 2 mps 764 mmHg 68%
21:00 -4°C° 0 mm 2 mps 764 mmHg 69%
22:00 -4°C° 0 mm 2 mps 764 mmHg 70%
23:00 -4°C° 0 mm 2 mps 764 mmHg 71%

2 March, Tuesday

Time Temperature Precipitation Wind Pressure Humidity
00:00 -4°C° 0 mm 2 mps 764 mmHg 72%
01:00 -4°C° 0 mm 2 mps 764 mmHg 74%
02:00 -5°C° 0 mm 3 mps 763 mmHg 75%
03:00 -5°C° 0 mm 3 mps 763 mmHg 76%
04:00 -5°C° 0 mm 4 mps 763 mmHg 76%
05:00 -5°C° 0 mm 4 mps 762 mmHg 77%
06:00 -6°C° 0 mm 5 mps 762 mmHg 77%
07:00 -5°C° 0 mm 6 mps 761 mmHg 74%
08:00 -4°C° 0 mm 6 mps 761 mmHg 71%
09:00 -4°C° 0 mm 7 mps 761 mmHg 68%
10:00 -3°C° 0 mm 7 mps 760 mmHg 66%
11:00 -2°C° 0 mm 8 mps 760 mmHg 63%
12:00 -1°C° 0 mm 8 mps 759 mmHg 61%
13:00 0°C° 0 mm 8 mps 758 mmHg 64%
14:00 0°C° 0 mm 7 mps 758 mmHg 66%
15:00 0°C° 0 mm 7 mps 757 mmHg 69%
16:00 0°C° 0 mm 7 mps 757 mmHg 75%
17:00 -1°C° 0 mm 6 mps 757 mmHg 80%
18:00 -1°C° 0 mm 6 mps 756 mmHg 86%
19:00 -1°C° 0 mm 6 mps 756 mmHg 86%
20:00 -1°C° 0 mm 6 mps 756 mmHg 86%
21:00 -1°C° 0 mm 6 mps 756 mmHg 86%
22:00 -1°C° 0 mm 6 mps 756 mmHg 87%
23:00 -1°C° 0 mm 6 mps 756 mmHg 88%
Show more

We Need Your Consent

Meteoprog and our Service Providers may store and access personal data such as cookies, device identifiers or other similar technologies on your device and process such data to personalise content and ads, as well as provide social media features and to analyse the traffic.

  • Store and/or access information on your device

    Cookies, device identifiers or other information can be stored or accessed on your device for the purposes indicated above.

  • Personalised ads and content, ad and content measurement, audience insights, and products development

    Ads and content can be personalised based on a profile. More data can be added to better personalise ads and content. Ad and content performance can be measured. Insights about the audience who saw the ads and content can be derived. Such data can be used to develop or improve user’s experience, systems and software.

By clicking ‘I Agree’ you will allow the use of indicated cookies, device identifiers, web beacons or other similar technologies. Your settings can be changed in the browser on your device.

For certain purposes, legitimate interests may be relied on, rather than consent. You can read more about this in our Privacy and Cookie Policy.